SCP
0 0 0 0 0 0 0 0 0 0 0 0 -0 -0 -0 -0 -0 -0 -0 0 0 0 -0 0 0 0 0 0 0 0 0 0 0 0 0 0 0 0 0 0 0 0 0 0 0 0 0
0 0 0 0 0 0 0 0 0 0 0 0 0 -0 -0 -0 -0 -0 -0 -0 -0 0 0 0 0 0 0 0 0 0 0 0 0 0 0 0 0 0 0 0 0 0 0 0 0 0 0
0 0 0 0 0 0 0 0 0 0 0 0 0 0 -0 0 0 0 0 0 0 0 0 0 0 0 0 0 0 0 0 0 0 0 0 0 0 0 0 0 0 0 0 0 0 0 0
0 0 0 0 0 0 0 0 0 0 0 0 0 0 0 -0 0 0 0 -0 0 0 0 0 0 0 0 0 0 0 0 0 0 0 0 0 0 0 0 0 0 0 0 0 0 0 0
0 0 0 0 0 0 0 0 0 0 0 0 -0 -0 0 0 0 0 0 0 0 0 0 0 0 0 0 0 0 0 0 0 0 0 0 0 0 0 0 0 0 0 0 0 0 0 0
0 0 0 0 0 0 0 0 0 0 0 0 -0 -0 -0 0 0 0 0 0 0 0 0 0 0 0 0 0 0 0 0 0 0 0 0 0 0 0 0 0 0 0 0 0 0 0 0
0 0 0 0 0 0 0 0 0 0 0 0 -0 -0 -0 -0 0 0 0 0 0 0 0 0 0 0 0 0 0 0 0 0 0 0 0 0 0 0 0 0 0 0 0 0 0 0 0
0 0 0 0 0 0 0 0 0 0 0 0 0 -0 -0 -0 0 0 0 0 0 0 0 0 0 0 0 0 0 0 0 0 0 0 0 0 0 0 0 0 0 0 0 0 0 0 0
0 0 0 0 0 0 0 0 0 0 0 0 -0 -0 -0 -0 0 0 0 0 0 0 0 0 0 0 0 0 0 0 0 0 0 0 0 0 0 0 0 0 0 0 0 0 0 0 0
0 0 0 0 0 0 0 0 0 0 0 0 0 -0 -0 -0 -0 0 0 0 0 0 0 0 0 0 0 0 0 0 0 0 0 0 0 0 0 0 0 0 0 0 0 0 0 0 0
0 0 0 0 0 0 0 0 0 0 0 0 0 0 -0 -0 0 0 0 0 0 0 0 0 0 0 0 0 0 0 0 0 0 0 0 0 0 0 0 0 0 0 0 0 0 0 0
0 0 0 0 0 0 0 0 0 0 -0 0 0 0 0 0 0 -0 -0 0 0 0 0 0 0 0 0 0 0 0 0 0 0 0 0 0 0 0 0 0 0 0 0 0 0 0 0
0 0 0 0 0 0 0 0 0 0 -0 -0 0 0 0 0 0 0 0 0 0 0 0 0 0 0 0 0 0 0 0 0 0 0 0 0 0 0 0 0 0 0 0 0 0 0 0
0 0 0 0 0 0 0 0 0 0 -0 0 0 0 0 0 0 0 0 0 0 0 0 0 0 0 0 0 0 0 0 0 0 0 0 0 0 0 0 0 0 0 0 0 0 0 0
0 0 0 0 -0 0 0 0 0 0 0 0 0 0 0 0 0 0 0 0 0 0 0 0 0 0 0 0 0 0 0 0 0 0 0 0 0 0 0 0 0 0 0 0 0 0 0
0 0 0 0 0 -0 -0 0 0 0 0 0 0 0 0 0 0 0 0 0 0 -0 0 0 0 0 0 0 0 0 0 0 0 0 0 0 0 0 0 0 0 0 0 0 0 0 0
0 0 0 0 0 0 0 0 0 0 0 0 0 0 0 0 0 0 0 0 0 0 0 0 0 0 0 0 0 0 0 0 0 0 0 0 0 0 0 0 0 0 0 0 0 0 0
0 0 0 0 0 0 0 0 0 0 0 0 0 0 0 0 0 0 0 0 0 0 0 0 0 0 0 -0 -0 -0 -0 0 0 0 0 0 0 0 0 0 0 0 0 0 0 0 0
0 0 0 0 0 0 0 0 0 0 0 0 0 0 0 0 0 0 0 0 0 0 0 0 0 0 0 0 0 -0 -0 -0 -0 -0 -0 0 -0 0 0 0 0 0 0 0 0 0 0
0 0 0 0 0 0 0 0 0 0 0 0 0 0 0 0 0 0 0 0 0 0 0 0 0 0 0 0 0 -0 0 -0 -0 -0 -0 -0 -0 -0 -0 -0 0 0 -0 0 0 0 0
0 0 0 0 0 0 0 0 0 0 0 0 0 0 0 0 0 0 0 0 0 0 0 0 0 0 0 0 0 0 0 0 0 0 -0 -0 -0 -0 -0 -0 -0 -0 0 0 0 0 0
0 0 0 0 0 0 0 0 0 0 0 0 0 0 0 0 0 0 0 0 0 0 0 0 0 0 0 0 0 0 0 0 0 0 0 0 0 0 -0 -0 -0 -0 0 0 0 0 0
0 0 0 0 0 0 0 0 0 0 0 0 0 0 0 0 0 0 0 0 0 0 0 0 0 0 0 0 0 0 0 0 0 0 0 0 0 0 0 0 0 -0 0 0 0 0 0
0 0 0 0 0 0 0 0 0 0 0 0 0 0 0 0 0 0 0 0 0 0 0 0 0 0 0 0 0 0 0 0 0 0 0 0 0 0 0 0 0 0 0 0 0 0 0
0 0 0 0 0 0 0 0 0 0 0 0 0 0 0 0 0 0 0 0 0 0 0 0 0 0 0 0 0 0 0 0 0 0 0 0 0 0 0 0 0 0 0 0 0 0 0
0 0 0 0 0 0 0 0 0 0 0 0 0 0 0 0 0 0 0 0 0 0 0 0 0 0 0 0 0 0 0 0 0 0 0 0 0 0 0 0 0 0 0 0 0 0 0
0 0 0 0 0 0 0 0 0 0 0 0 0 0 0 0 0 0 0 0 0 0 0 0 0 0 0 0 0 0 0 0 0 0 0 0 0 0 0 0 0 0 0 0 0 0 0
0 0 0 0 0 0 0 0 0 0 0 0 0 0 0 0 0 0 0 0 0 0 0 0 0 0 0 0 0 0 0 0 0 0 0 0 0 0 0 0 0 0 0 0 0 0 0
0 0 0 0 0 0 0 0 0 0 0 0 0 0 0 0 0 0 0 0 0 0 0 0 0 0 0 0 0 0 0 0 0 0 0 0 0 0 0 0 0 0 0 0 0 0 0
Wind_Speed_500mb
52 52 52 48 46 46 39 36 44 40 39 42 36 34 37 36 34 32 31 28 33 45 40 33 30 31 36 37 18 12 21 31 55 43 44 41 42 22 16 14 15 10 7 15 13 29 30
55 53 51 51 48 45 43 37 35 39 39 45 37 27 32 39 39 33 28 25 28 33 32 39 42 37 27 42 26 28 44 50 33 28 42 39 43 28 18 13 9 15 25 13 20 23 17
56 56 53 51 49 42 42 38 34 36 32 37 37 23 25 37 34 41 31 26 24 23 26 36 34 29 49 38 31 39 44 32 20 21 25 47 22 28 17 14 26 34 12 10 14 8 5
55 55 54 53 52 46 39 41 35 33 26 34 37 37 33 41 42 40 32 28 23 25 28 27 22 24 20 41 34 35 29 30 21 25 39 34 34 42 16 36 15 6 7 8 8 8 2
53 54 54 52 51 51 42 40 38 31 26 21 34 39 32 29 28 32 35 34 34 20 28 31 23 23 17 40 42 31 30 33 23 35 38 44 41 23 22 12 10 6 4 6 0 6 3
50 52 53 53 50 50 47 38 38 31 27 16 9 17 23 20 27 23 21 34 52 28 13 15 19 14 32 26 36 31 30 31 26 24 27 18 13 9 8 9 9 9 7 6 6 6 4
48 51 52 53 53 50 48 44 34 33 27 23 15 14 17 14 15 14 14 16 17 34 62 46 32 23 32 24 35 33 28 31 13 12 8 15 20 9 5 3 8 6 11 12 3 4 4
45 47 50 51 53 53 50 47 40 27 25 25 21 18 17 15 15 32 40 33 32 12 14 47 45 41 45 24 33 28 21 9 7 8 9 15 10 7 11 10 15 16 17 8 2 2 3
42 44 46 49 51 55 56 53 46 30 19 19 16 21 22 28 28 26 36 34 25 11 9 24 30 35 27 33 21 31 27 24 19 16 15 14 2 15 6 18 17 15 12 7 2 8 3
39 41 44 47 51 55 59 60 55 36 11 13 13 10 11 19 7 16 21 34 24 8 10 23 23 19 25 9 19 35 24 8 13 11 10 13 18 10 16 13 11 9 9 6 7 9 2
36 41 44 47 51 54 59 63 64 39 11 9 8 9 10 10 8 13 22 26 19 6 11 16 16 13 22 15 2 22 19 40 13 7 12 5 12 14 18 6 6 6 3 6 4 6 9
33 38 41 45 50 55 58 63 68 42 12 6 11 9 10 23 22 20 14 11 6 12 4 13 10 12 9 20 7 6 12 14 17 20 16 8 8 8 4 3 6 4 4 8 9 6 6
30 35 40 45 48 54 57 62 68 47 14 13 14 19 9 5 8 8 4 1 10 12 5 12 6 8 9 11 11 12 8 11 7 10 9 11 8 4 6 2 6 2 9 6 9 8 9
27 34 39 43 47 51 55 59 64 52 18 12 22 37 24 14 3 6 7 9 19 9 2 5 6 3 7 6 5 5 6 6 12 8 7 8 10 5 10 4 4 5 8 9 9 3 8
24 28 33 37 43 48 51 55 59 58 26 8 7 26 39 19 12 5 2 13 12 4 4 4 4 1 4 2 1 4 6 4 4 10 9 8 3 1 5 6 3 3 4 7 11 5 6
19 23 29 34 40 44 50 52 53 55 33 19 12 12 35 15 12 10 11 9 5 3 7 4 4 3 3 3 7 2 2 7 3 7 5 3 8 1 1 5 5 1 5 7 6 4 7
17 22 26 30 36 41 45 50 50 50 44 18 17 11 30 10 10 15 8 4 5 4 6 6 7 7 6 3 5 6 5 6 8 7 10 5 8 6 6 9 13 1 2 3 5 9 8
16 19 24 28 32 37 42 46 47 48 45 23 11 6 31 13 11 11 5 4 4 1 2 1 2 5 6 7 5 5 5 4 6 3 4 4 7 6 9 3 3 7 10 10 8 8 6
15 18 21 27 30 34 39 42 43 43 43 26 8 8 18 21 6 4 4 4 5 2 1 1 2 2 1 4 6 5 8 2 4 8 3 5 2 4 12 9 6 6 9 9 6 5 11
19 15 21 25 28 33 36 39 40 39 37 22 13 6 10 15 10 7 5 6 4 2 4 2 1 1 1 3 4 5 7 2 2 6 4 6 1 9 10 7 5 6 9 11 11 6 8
21 20 18 22 26 30 34 37 37 36 32 19 15 6 7 6 12 10 4 6 5 4 5 1 6 7 2 5 6 7 7 4 6 6 3 5 4 3 9 13 9 14 17 18 19 17 13
17 23 17 21 22 26 30 32 36 36 30 19 9 10 9 4 7 11 6 4 5 3 9 6 8 2 6 6 3 4 6 7 10 6 12 10 6 2 8 12 10 14 22 23 28 25 21
21 24 22 19 22 25 28 32 35 35 30 14 14 10 6 3 4 5 3 7 5 2 3 3 4 3 4 5 3 9 13 14 7 14 12 11 8 5 10 7 12 16 15 24 12 11 18
25 26 28 20 20 21 25 28 32 34 32 22 15 8 4 5 2 4 2 1 3 6 5 2 5 3 3 3 9 16 21 22 19 15 15 10 9 6 7 6 5 11 6 10 18 13 18
29 28 30 29 20 17 19 23 26 29 27 19 13 6 2 4 4 8 3 4 8 9 6 7 7 7 5 4 5 7 3 6 1 8 5 7 7 3 5 6 16 2 2 8 6 6 6
34 32 33 31 27 23 21 19 21 21 22 22 14 5 1 3 5 3 2 5 4 5 4 5 6 8 7 4 3 7 9 11 5 3 13 6 6 6 0 4 10 2 3 9 6 1 3
37 37 36 32 30 28 27 25 23 21 20 18 19 10 5 7 8 5 5 4 3 4 3 3 4 5 9 3 4 8 8 5 8 12 9 6 2 10 7 7 14 11 11 8 3 5 12
41 38 39 37 35 32 32 32 32 31 25 22 19 17 10 10 23 20 13 12 8 6 4 1 5 5 4 4 6 7 6 7 3 7 12 14 14 9 8 8 17 13 9 10 7 9 10
53 51 49 48 46 39 29 34 35 31 27 24 27 19 20 20 19 20 34 30 30 32 28 15 7 4 12 2 5 3 4 3 9 6 3 4 12 11 19 12 10 24 3 10 19 14 19
Wind_Direction_500mb
31 30 24 22 26 26 20 32 28 27 39 33 30 32 46 47 55 52 68 86 79 88 90 82 63 69 87 74 78 128 157 170 158 170 189 182 184 177 144 145 92 90 120 65 65 74 64
29 29 25 22 24 26 23 27 33 28 36 37 36 50 49 60 58 59 61 67 87 89 84 65 65 70 74 73 98 119 138 149 157 183 190 186 180 170 89 90 79 119 106 97 63 70 68
26 27 26 24 21 23 25 22 37 35 35 39 38 55 54 73 73 73 61 66 83 76 58 60 70 56 46 59 106 122 134 144 162 207 213 194 179 175 112 89 117 127 87 58 28 40 57
28 26 27 26 22 23 26 25 36 38 48 57 57 63 70 75 76 75 76 86 73 45 35 44 44 48 56 63 97 105 104 114 116 137 150 123 139 120 91 121 100 72 63 79 317 5 345
32 29 28 29 24 22 28 27 25 45 46 59 68 63 69 75 73 89 87 59 40 29 47 47 55 67 39 75 83 104 111 103 119 122 119 121 121 93 112 94 49 30 146 110 279 23 18
33 32 31 29 28 21 24 25 24 33 37 43 38 47 53 80 89 87 93 88 60 55 81 46 53 74 48 46 68 86 95 103 108 88 94 104 84 83 44 71 168 182 139 113 134 326 1
35 34 33 29 29 25 19 20 16 22 36 30 36 43 64 108 90 56 65 81 71 48 58 77 68 70 47 72 64 97 102 111 83 59 67 28 74 98 129 163 192 186 135 110 110 332 354
37 33 31 28 25 25 22 15 14 12 27 35 49 69 102 109 67 71 71 62 58 63 42 51 68 63 55 59 70 63 102 92 97 59 46 42 57 295 302 23 65 57 99 44 120 266 90
35 33 28 25 22 20 19 17 10 12 24 58 63 85 87 105 94 65 42 34 21 19 60 18 24 38 24 44 43 24 56 71 86 58 52 91 236 313 80 37 52 32 87 49 55 329 5
30 31 28 22 18 16 14 13 12 8 30 51 109 109 106 130 75 21 20 6 360 8 74 335 354 26 15 28 34 32 43 52 54 111 74 62 353 53 57 63 16 76 343 32 32 52 210
27 27 24 19 15 13 11 10 8 10 41 59 67 186 214 240 290 326 329 336 341 352 61 310 334 6 38 71 58 17 52 73 78 37 85 267 15 42 55 355 348 142 28 66 35 61 50
22 23 20 16 13 11 11 10 8 11 51 80 38 25 260 261 264 279 301 314 5 43 332 336 326 346 28 40 49 45 51 73 82 64 51 102 55 54 82 5 47 125 72 33 45 69 36
20 18 15 11 9 9 10 10 11 12 50 80 23 7 25 288 252 268 262 24 47 81 287 327 340 13 60 21 15 34 38 29 78 80 26 21 20 4 27 28 340 86 65 10 3 13 218
19 14 11 10 7 7 6 10 12 14 23 104 53 27 35 36 77 151 150 60 67 258 139 240 300 3 72 10 350 327 117 36 14 67 121 130 340 353 337 84 172 41 127 145 194 204 260
19 11 7 7 8 5 5 7 10 16 16 1 331 14 18 34 96 61 158 52 164 171 228 286 300 180 14 349 148 58 67 118 33 22 121 124 323 311 31 4 58 324 50 155 103 62 51
5 6 5 5 6 5 2 4 8 11 14 5 354 355 19 47 48 15 72 123 116 18 356 348 62 92 78 17 1 39 117 322 73 34 15 148 96 221 195 20 2 66 170 61 6 141 261
352 357 360 0 0 2 3 1 1 6 8 6 8 355 7 16 21 49 95 108 112 38 41 70 38 41 69 82 38 46 26 328 6 336 354 51 96 280 71 203 181 71 283 195 126 152 176
342 349 349 352 357 359 2 4 1 2 8 8 3 30 358 2 49 54 71 39 129 194 2 20 82 78 67 17 39 81 109 59 58 26 38 350 132 175 222 149 135 187 207 157 127 244 221
329 341 345 346 352 358 360 5 4 2 3 3 3 348 1 12 78 56 158 80 54 161 169 9 84 87 67 82 114 84 104 335 49 38 71 359 344 43 341 345 350 230 214 203 126 80 218
312 323 340 347 351 355 359 2 5 5 4 8 350 14 19 36 43 112 133 150 113 44 344 358 156 147 215 155 117 150 137 82 57 36 62 49 254 178 193 210 135 226 232 217 170 159 197
307 312 328 338 343 350 358 2 6 9 11 20 21 26 25 336 360 10 18 192 133 178 169 117 319 283 213 174 168 193 128 162 166 177 49 93 230 262 261 258 243 231 230 222 209 210 199
301 307 308 325 336 340 348 1 4 8 18 44 48 16 347 5 348 353 344 271 210 185 149 221 170 123 280 302 291 204 158 182 203 199 169 174 233 280 282 279 268 260 245 229 234 236 250
286 293 309 312 328 336 340 346 355 3 17 51 33 17 346 350 17 66 300 337 324 99 190 174 202 131 228 223 306 304 296 295 218 161 197 163 159 110 260 315 329 292 234 223 197 212 209
272 285 297 310 319 329 338 343 347 353 4 18 23 18 31 292 99 210 236 23 297 297 297 304 202 175 296 306 294 275 265 267 273 245 198 173 164 162 265 7 264 235 245 193 189 231 229
265 277 287 299 302 314 330 339 345 346 347 0 6 15 6 270 284 318 201 236 291 276 247 240 243 236 254 322 6 339 348 2 3 56 53 11 162 238 218 227 295 6 234 144 170 275 323
264 272 281 290 296 304 312 315 326 329 331 333 339 356 300 320 258 322 299 233 222 236 334 222 253 248 230 157 131 224 228 218 218 326 8 87 89 162 40 231 249 310 223 121 91 243 31
258 263 271 278 282 291 292 297 293 302 311 305 309 301 262 247 246 252 212 201 252 280 243 218 216 203 198 142 182 196 252 205 206 179 149 110 90 217 227 257 285 258 176 150 158 211 320
250 257 264 270 277 281 289 288 289 286 291 287 291 283 258 257 275 258 252 226 240 236 166 332 359 220 107 181 192 250 217 254 293 162 177 163 158 194 183 211 261 173 130 174 205 307 313
247 252 259 264 269 272 277 284 287 277 276 273 277 288 285 257 261 272 279 269 239 270 262 232 213 202 216 153 246 237 253 234 174 248 199 236 196 177 186 208 266 181 301 341 342 35 352
Wind_Speed_850mb
52 52 52 48 46 46 39 36 44 40 39 42 36 34 37 36 34 32 31 28 33 45 40 33 30 31 36 37 18 12 21 31 55 43 44 41 42 22 16 14 15 10 7 15 13 29 30
55 53 51 51 48 45 43 37 35 39 39 45 37 27 32 39 39 33 28 25 28 33 32 39 42 37 27 42 26 28 44 50 33 28 42 39 43 28 18 13 9 15 25 13 20 23 17
56 56 53 51 49 42 42 38 34 36 32 37 37 23 25 37 34 41 31 26 24 23 26 36 34 29 49 38 31 39 44 32 20 21 25 47 22 28 17 14 26 34 12 10 14 8 5
55 55 54 53 52 46 39 41 35 33 26 34 37 37 33 41 42 40 32 28 23 25 28 27 22 24 20 41 34 35 29 30 21 25 39 34 34 42 16 36 15 6 7 8 8 8 2
53 54 54 52 51 51 42 40 38 31 26 21 34 39 32 29 28 32 35 34 34 20 28 31 23 23 17 40 42 31 30 33 23 35 38 44 41 23 22 12 10 6 4 6 0 6 3
50 52 53 53 50 50 47 38 38 31 27 16 9 17 23 20 27 23 21 34 52 28 13 15 19 14 32 26 36 31 30 31 26 24 27 18 13 9 8 9 9 9 7 6 6 6 4
48 51 52 53 53 50 48 44 34 33 27 23 15 14 17 14 15 14 14 16 17 34 62 46 32 23 32 24 35 33 28 31 13 12 8 15 20 9 5 3 8 6 11 12 3 4 4
45 47 50 51 53 53 50 47 40 27 25 25 21 18 17 15 15 32 40 33 32 12 14 47 45 41 45 24 33 28 21 9 7 8 9 15 10 7 11 10 15 16 17 8 2 2 3
42 44 46 49 51 55 56 53 46 30 19 19 16 21 22 28 28 26 36 34 25 11 9 24 30 35 27 33 21 31 27 24 19 16 15 14 2 15 6 18 17 15 12 7 2 8 3
39 41 44 47 51 55 59 60 55 36 11 13 13 10 11 19 7 16 21 34 24 8 10 23 23 19 25 9 19 35 24 8 13 11 10 13 18 10 16 13 11 9 9 6 7 9 2
36 41 44 47 51 54 59 63 64 39 11 9 8 9 10 10 8 13 22 26 19 6 11 16 16 13 22 15 2 22 19 40 13 7 12 5 12 14 18 6 6 6 3 6 4 6 9
33 38 41 45 50 55 58 63 68 42 12 6 11 9 10 23 22 20 14 11 6 12 4 13 10 12 9 20 7 6 12 14 17 20 16 8 8 8 4 3 6 4 4 8 9 6 6
30 35 40 45 48 54 57 62 68 47 14 13 14 19 9 5 8 8 4 1 10 12 5 12 6 8 9 11 11 12 8 11 7 10 9 11 8 4 6 2 6 2 9 6 9 8 9
27 34 39 43 47 51 55 59 64 52 18 12 22 37 24 14 3 6 7 9 19 9 2 5 6 3 7 6 5 5 6 6 12 8 7 8 10 5 10 4 4 5 8 9 9 3 8
24 28 33 37 43 48 51 55 59 58 26 8 7 26 39 19 12 5 2 13 12 4 4 4 4 1 4 2 1 4 6 4 4 10 9 8 3 1 5 6 3 3 4 7 11 5 6
19 23 29 34 40 44 50 52 53 55 33 19 12 12 35 15 12 10 11 9 5 3 7 4 4 3 3 3 7 2 2 7 3 7 5 3 8 1 1 5 5 1 5 7 6 4 7
17 22 26 30 36 41 45 50 50 50 44 18 17 11 30 10 10 15 8 4 5 4 6 6 7 7 6 3 5 6 5 6 8 7 10 5 8 6 6 9 13 1 2 3 5 9 8
16 19 24 28 32 37 42 46 47 48 45 23 11 6 31 13 11 11 5 4 4 1 2 1 2 5 6 7 5 5 5 4 6 3 4 4 7 6 9 3 3 7 10 10 8 8 6
15 18 21 27 30 34 39 42 43 43 43 26 8 8 18 21 6 4 4 4 5 2 1 1 2 2 1 4 6 5 8 2 4 8 3 5 2 4 12 9 6 6 9 9 6 5 11
19 15 21 25 28 33 36 39 40 39 37 22 13 6 10 15 10 7 5 6 4 2 4 2 1 1 1 3 4 5 7 2 2 6 4 6 1 9 10 7 5 6 9 11 11 6 8
21 20 18 22 26 30 34 37 37 36 32 19 15 6 7 6 12 10 4 6 5 4 5 1 6 7 2 5 6 7 7 4 6 6 3 5 4 3 9 13 9 14 17 18 19 17 13
17 23 17 21 22 26 30 32 36 36 30 19 9 10 9 4 7 11 6 4 5 3 9 6 8 2 6 6 3 4 6 7 10 6 12 10 6 2 8 12 10 14 22 23 28 25 21
21 24 22 19 22 25 28 32 35 35 30 14 14 10 6 3 4 5 3 7 5 2 3 3 4 3 4 5 3 9 13 14 7 14 12 11 8 5 10 7 12 16 15 24 12 11 18
25 26 28 20 20 21 25 28 32 34 32 22 15 8 4 5 2 4 2 1 3 6 5 2 5 3 3 3 9 16 21 22 19 15 15 10 9 6 7 6 5 11 6 10 18 13 18
29 28 30 29 20 17 19 23 26 29 27 19 13 6 2 4 4 8 3 4 8 9 6 7 7 7 5 4 5 7 3 6 1 8 5 7 7 3 5 6 16 2 2 8 6 6 6
34 32 33 31 27 23 21 19 21 21 22 22 14 5 1 3 5 3 2 5 4 5 4 5 6 8 7 4 3 7 9 11 5 3 13 6 6 6 0 4 10 2 3 9 6 1 3
37 37 36 32 30 28 27 25 23 21 20 18 19 10 5 7 8 5 5 4 3 4 3 3 4 5 9 3 4 8 8 5 8 12 9 6 2 10 7 7 14 11 11 8 3 5 12
41 38 39 37 35 32 32 32 32 31 25 22 19 17 10 10 23 20 13 12 8 6 4 1 5 5 4 4 6 7 6 7 3 7 12 14 14 9 8 8 17 13 9 10 7 9 10
53 51 49 48 46 39 29 34 35 31 27 24 27 19 20 20 19 20 34 30 30 32 28 15 7 4 12 2 5 3 4 3 9 6 3 4 12 11 19 12 10 24 3 10 19 14 19
Wind_Direction_850mb
31 30 24 22 26 26 20 32 28 27 39 33 30 32 46 47 55 52 68 86 79 88 90 82 63 69 87 74 78 128 157 170 158 170 189 182 184 177 144 145 92 90 120 65 65 74 64
29 29 25 22 24 26 23 27 33 28 36 37 36 50 49 60 58 59 61 67 87 89 84 65 65 70 74 73 98 119 138 149 157 183 190 186 180 170 89 90 79 119 106 97 63 70 68
26 27 26 24 21 23 25 22 37 35 35 39 38 55 54 73 73 73 61 66 83 76 58 60 70 56 46 59 106 122 134 144 162 207 213 194 179 175 112 89 117 127 87 58 28 40 57
28 26 27 26 22 23 26 25 36 38 48 57 57 63 70 75 76 75 76 86 73 45 35 44 44 48 56 63 97 105 104 114 116 137 150 123 139 120 91 121 100 72 63 79 317 5 345
32 29 28 29 24 22 28 27 25 45 46 59 68 63 69 75 73 89 87 59 40 29 47 47 55 67 39 75 83 104 111 103 119 122 119 121 121 93 112 94 49 30 146 110 279 23 18
33 32 31 29 28 21 24 25 24 33 37 43 38 47 53 80 89 87 93 88 60 55 81 46 53 74 48 46 68 86 95 103 108 88 94 104 84 83 44 71 168 182 139 113 134 326 1
35 34 33 29 29 25 19 20 16 22 36 30 36 43 64 108 90 56 65 81 71 48 58 77 68 70 47 72 64 97 102 111 83 59 67 28 74 98 129 163 192 186 135 110 110 332 354
37 33 31 28 25 25 22 15 14 12 27 35 49 69 102 109 67 71 71 62 58 63 42 51 68 63 55 59 70 63 102 92 97 59 46 42 57 295 302 23 65 57 99 44 120 266 90
35 33 28 25 22 20 19 17 10 12 24 58 63 85 87 105 94 65 42 34 21 19 60 18 24 38 24 44 43 24 56 71 86 58 52 91 236 313 80 37 52 32 87 49 55 329 5
30 31 28 22 18 16 14 13 12 8 30 51 109 109 106 130 75 21 20 6 360 8 74 335 354 26 15 28 34 32 43 52 54 111 74 62 353 53 57 63 16 76 343 32 32 52 210
27 27 24 19 15 13 11 10 8 10 41 59 67 186 214 240 290 326 329 336 341 352 61 310 334 6 38 71 58 17 52 73 78 37 85 267 15 42 55 355 348 142 28 66 35 61 50
22 23 20 16 13 11 11 10 8 11 51 80 38 25 260 261 264 279 301 314 5 43 332 336 326 346 28 40 49 45 51 73 82 64 51 102 55 54 82 5 47 125 72 33 45 69 36
20 18 15 11 9 9 10 10 11 12 50 80 23 7 25 288 252 268 262 24 47 81 287 327 340 13 60 21 15 34 38 29 78 80 26 21 20 4 27 28 340 86 65 10 3 13 218
19 14 11 10 7 7 6 10 12 14 23 104 53 27 35 36 77 151 150 60 67 258 139 240 300 3 72 10 350 327 117 36 14 67 121 130 340 353 337 84 172 41 127 145 194 204 260
19 11 7 7 8 5 5 7 10 16 16 1 331 14 18 34 96 61 158 52 164 171 228 286 300 180 14 349 148 58 67 118 33 22 121 124 323 311 31 4 58 324 50 155 103 62 51
5 6 5 5 6 5 2 4 8 11 14 5 354 355 19 47 48 15 72 123 116 18 356 348 62 92 78 17 1 39 117 322 73 34 15 148 96 221 195 20 2 66 170 61 6 141 261
352 357 360 0 0 2 3 1 1 6 8 6 8 355 7 16 21 49 95 108 112 38 41 70 38 41 69 82 38 46 26 328 6 336 354 51 96 280 71 203 181 71 283 195 126 152 176
342 349 349 352 357 359 2 4 1 2 8 8 3 30 358 2 49 54 71 39 129 194 2 20 82 78 67 17 39 81 109 59 58 26 38 350 132 175 222 149 135 187 207 157 127 244 221
329 341 345 346 352 358 360 5 4 2 3 3 3 348 1 12 78 56 158 80 54 161 169 9 84 87 67 82 114 84 104 335 49 38 71 359 344 43 341 345 350 230 214 203 126 80 218
312 323 340 347 351 355 359 2 5 5 4 8 350 14 19 36 43 112 133 150 113 44 344 358 156 147 215 155 117 150 137 82 57 36 62 49 254 178 193 210 135 226 232 217 170 159 197
307 312 328 338 343 350 358 2 6 9 11 20 21 26 25 336 360 10 18 192 133 178 169 117 319 283 213 174 168 193 128 162 166 177 49 93 230 262 261 258 243 231 230 222 209 210 199
301 307 308 325 336 340 348 1 4 8 18 44 48 16 347 5 348 353 344 271 210 185 149 221 170 123 280 302 291 204 158 182 203 199 169 174 233 280 282 279 268 260 245 229 234 236 250
286 293 309 312 328 336 340 346 355 3 17 51 33 17 346 350 17 66 300 337 324 99 190 174 202 131 228 223 306 304 296 295 218 161 197 163 159 110 260 315 329 292 234 223 197 212 209
272 285 297 310 319 329 338 343 347 353 4 18 23 18 31 292 99 210 236 23 297 297 297 304 202 175 296 306 294 275 265 267 273 245 198 173 164 162 265 7 264 235 245 193 189 231 229
265 277 287 299 302 314 330 339 345 346 347 0 6 15 6 270 284 318 201 236 291 276 247 240 243 236 254 322 6 339 348 2 3 56 53 11 162 238 218 227 295 6 234 144 170 275 323
264 272 281 290 296 304 312 315 326 329 331 333 339 356 300 320 258 322 299 233 222 236 334 222 253 248 230 157 131 224 228 218 218 326 8 87 89 162 40 231 249 310 223 121 91 243 31
258 263 271 278 282 291 292 297 293 302 311 305 309 301 262 247 246 252 212 201 252 280 243 218 216 203 198 142 182 196 252 205 206 179 149 110 90 217 227 257 285 258 176 150 158 211 320
250 257 264 270 277 281 289 288 289 286 291 287 291 283 258 257 275 258 252 226 240 236 166 332 359 220 107 181 192 250 217 254 293 162 177 163 158 194 183 211 261 173 130 174 205 307 313
247 252 259 264 269 272 277 284 287 277 276 273 277 288 285 257 261 272 279 269 239 270 262 232 213 202 216 153 246 237 253 234 174 248 199 236 196 177 186 208 266 181 301 341 342 35 352